274  
ASUS42 KMHX 211426  
RWRMHX  
WEATHER ROUNDUP FOR EASTERN NORTH CAROLINA  
NATIONAL WEATHER SERVICE NEWPORT/MOREHEAD CITY NC  
1000 AM EDT SAT MAY 21 2022  
 
NOTE: "FAIR" INDICATES FEW OR NO CLOUDS BELOW 12,000 FEET  
WITH NO SIGNIFICANT WEATHER AND/OR S TO VISIBILITY
 
 
NCZ015>017-031-032-045>047-102-103-211500-  
NORTH COAST  
 
CITY SKY/WX TMP DP RH WIND PRES REMARKS
 
EDENTON SUNNY 85 76 76 SW7 30.15S  
ELIZABETH CITY SUNNY 84 72 67 SW14 30.13R  
KITTY HAWK SUNNY 82 71 68 SW7 30.14S  
MANTEO SUNNY 83 71 67 W12G17 30.16S  
 

 
 
NCZ045>047-081-094-103-104-211500-  
CENTRAL COAST  
 
CITY SKY/WX TMP DP RH WIND PRES REMARKS
 
FRISCO MOSUNNY 78 72 81 SW7 30.18S  
 

 
 
NCZ095-097-098-100-101-211500-  
SOUTHERN COAST  
 
CITY SKY/WX TMP DP RH WIND PRES REMARKS
 
PINEY ISLAND SUNNY 87 74 64 SW13 30.16S  
BEAUFORT SUNNY 80 75 84 SW13 30.18R  
CAPE CARTERET SUNNY 82 74 76 SW14 30.18R  
JACKSONVILLE MOSUNNY 83 72 69 SW9 30.16R  
WILMINGTON PTSUNNY 85 70 60 SW12 30.17R  
 

 
 
NCZ011>013-027>030-043-044-078>080-089-090>093-098-211500-  
COASTAL PLAIN  
 
CITY SKY/WX TMP DP RH WIND PRES REMARKS
 
AHOSKIE MOSUNNY 82 72 72 SW7 30.14R  
ROCKY MOUNT MOSUNNY 83 71 67 SW8 30.15R  
GREENVILLE MOSUNNY 84 72 65 W6 30.15R  
WASHINGTON MOSUNNY 87 70 57 W9 30.16R  
GOLDSBORO PTSUNNY 81 69 66 S8 30.13R  
KINSTON SUNNY 82 72 69 W8 30.16R  
NEW BERN SUNNY 84 72 65 W12 30.17R  
HAVELOCK MOSUNNY 85 74 69 SW13 30.17S  
KENANSVILLE PTSUNNY 84 72 65 MISG 30.17R  
RICHLANDS SUNNY 84 72 65 SW8 30.17R  
CLINTON PTSUNNY 84 73 69 W8 30.16S  
ELIZABETHTOWN PTSUNNY 83 70 63 SW9 30.18R  
WHITEVILLE CLOUDY 81 69 68 SW7 30.19R  
 

 
 
AMZ130-135-150-152-154-156-158-170-250-252-270-ANZ085-086-088-633-658-670-211500-  
MARINE OBSERVATIONS  
 
STATION/POSITION TIME TEMP WIND PRES WAVE SWELL
 
AIR SEA DIR/SP/G HT/PER HT/PER  
(UTC) (F) (DEG/KT/KT) (MB) (FT/S) (FT/S)  
64 E VA BEACH 1400 210/ 8/ 10 1019.9  
64 E VA BEACH 1400 64 N/A 4/ 5 2/10  
DUCK PIER 1348 80 54 240/ 13/ 16 1020.6  
2 E DUCK 1356 60 N/A 2/11  
10 NE DUCK 1356 64 N/A 2/11  
OREGON INLET 1342 75 81 220/ 16/ 17 1021.1  
13E OREGON INLT 1356 68 N/A 4/ 5 2/11  
13E CAPE HATTERA 1356 73 N/A 3/ 6  
HATTERAS CG 1348 76 72 210/ 8/ 11 1022.4  
DIAMOND BUOY 1410 75 220/ 10/ 12 1021.9  
CAPE LOOKOUT 1400 77 210/ 12/ 14 1022.2  
BEAUFORT LAB 1348 78 77 210/ 7/ 12 1020.9  
30 SE NEW RVR IN 1308 75 73 230/ 10/ 14 1022.2  
30 SE NEW RVR IN 1356 73 N/A 4/ 6  
27 SE WRIGHTSVLE 1408 76 74 200/ 10/ 16 1021.7  
5 SE WRIGHTSVLE NOT AVBL  
27 SE WRIGHTSVL 1408 76 74 200/ 10/ 16 1021.7  
FRYING PAN BUOY 1410 75 74 210/ 8/ 10 1022.3  
225 S CAPE HAT 1410 78 78 170/ 10/ 12 1023.0  
41 SE CHARLESTON 1410 76 76 180/ 10/ 12 1022.7  
 

 
 
 
CLICK HERE TO GO TO PREVIOUS BULLETINS.

The Nexlab NC Page Main Text Page